Location: Cz?stochówka
(50.8142°N, 19.0915°E)
Time: 06:42:21
(UTC+00:00)

Cosmos 1743 Rocket - Pass Details

Date: 13 January 2026
Orbit: 597 x 626 km, 82.6° (Epoch: 10 February)

Event Time Altitude Azimuth Distance (km) Brightness Sun altitude
Rises 05:10:23 0° 195° (SSW) 2,900 7.0 -13.7°
Reaches altitude 10° 05:12:37 10° 197° (SSW) 1,997 6.2 -13.4°
Maximum altitude 05:17:02 70° 282° (WNW) 667 3.5 -12.7°
Drops below altitude 10° 05:21:28 10° 6° (N) 2,003 6.0 -12.1°
Sets 05:23:43 0° 9° (N) 2,911 6.9 -11.7°
